Pagina principale
METAR-TAF:

METAR-TAF

Aeroporti :

Wasilla, Alaska, Stati Uniti

latitudine: 61-34-19N, longitudine: 149-32-26W, altezza: 106 m

Osservazione

Il bollettino è stato emesso 53 minuti fa, alle 22:56 UTC
Vento calmo
Temperature -1°C
Umidità 80%
Pressione 994 hPa
Visibilità: 16.1 km
Cielo sereno

METAR: PAWS 202256Z AUTO 00000KT 10SM CLR M01/M04 A2935 RMK AO2 SLP954 T10061044 FZRANO

Ora: 14:49 (23:49 UTC)


TAF: mancante

Osservazioni e previsioni meteorologiche di più di 4000 aeroporti (messaggi METAR e TAF).

Le stazioni disponibili sono rappresentate dai dischi gialli e rossi sulla carta.

Puntare il mouse per vedere il nome della stazione.

Clicca sopra per visualizzare le osservazioni e previsioni meteorologiche.

Per cambiare la mappa : fare clic sui pulsanti verdi con una croce nera per ingrandire, il pulsante verde con un trattino per diminuire, o sulla freccia verde per le mappe adiacenti.


METAR-TAF: